DW8485 Weather Reports


time (UTC)temp
C
wind
direction
speed
KPH
gust
KPH
rain 1hr
cm
rain 24hr
cm
rain mn
cm
humidity
%
barometer
mb
20260906113005 22 11 0.0 0.0 0.00 0.00 0.00 93 1010.3
20260906112505 22 11 0.0 0.0 0.00 0.00 0.00 93 1009.8
20260906111505 22 11 0.0 0.0 0.00 0.00 0.00 93 1009.8
20260906111005 22 11 0.0 0.0 0.00 0.00 0.00 93 1009.8
20260906110505 22 11 0.0 0.0 0.00 0.00 0.00 93 1009.8
20260906110005 22 11 0.0 0.0 0.00 0.00 0.00 93 1009.8
20260906105505 22 11 0.0 0.0 0.00 0.00 0.00 93 1009.8
20260906105005 22 11 0.0 0.0 0.00 0.00 0.00 93 1009.8
20260906104505 22 11 0.0 0.0 0.00 0.00 0.00 93 1009.8
20260906104005 22 11 0.0 0.0 0.00 0.00 0.00 93 1009.8
20260906103505 22 11 0.0 0.0 0.00 0.00 0.00 93 1009.7
20260906103005 22 11 0.0 0.0 0.00 0.00 0.00 93 1009.7
20260906102006 22 11 0.0 0.0 0.00 0.00 0.00 93 1009.6
20260906101505 22 11 0.0 1.6 0.00 0.00 0.00 93 1009.6
20260906101005 22 11 0.0 1.6 0.00 0.00 0.00 92 1009.6
20260906100505 22 11 0.0 1.6 0.00 0.00 0.00 92 1009.6
20260906100006 22 11 0.0 0.0 0.00 0.00 0.00 92 1009.6
20260906095006 22 11 0.0 0.0 0.00 0.00 0.00 92 1009.6
20260906094505 22 11 0.0 0.0 0.00 0.00 0.00 92 1009.3
20260906094005 22 11 0.0 0.0 0.00 0.00 0.00 92 1009.3
20260906093506 22 11 0.0 0.0 0.00 0.00 0.00 92 1009.3
20260906093005 22 11 0.0 0.0 0.00 0.00 0.00 92 1009.3
20260906092505 22 11 0.0 0.0 0.00 0.00 0.00 92 1009.3
20260906091505 22 11 0.0 0.0 0.00 0.00 0.00 92 1009.3
20260906091005 22 11 0.0 0.0 0.00 0.00 0.00 92 1009.3
20260906090506 22 11 0.0 0.0 0.00 0.00 0.00 92 1009.3
20260906090005 22 11 0.0 1.6 0.00 0.00 0.00 92 1009.3
20260906085505 22 11 0.0 3.2 0.00 0.00 0.00 92 1009.3
20260906085006 22 11 0.0 3.2 0.00 0.00 0.00 92 1009.3
20260906084505 22 11 0.0 0.0 0.00 0.00 0.00 91 1009.3
20260906084005 22 11 0.0 0.0 0.00 0.00 0.00 91 1009.3
20260906083005 22 11 0.0 0.0 0.00 0.00 0.00 91 1009.3
20260906082505 23 11 0.0 0.0 0.00 0.00 0.00 91 1009.3
20260906082005 23 11 0.0 1.6 0.00 0.00 0.00 91 1009.3
20260906081505 23 11 0.0 1.6 0.00 0.00 0.00 91 1009.3
20260906081006 23 11 0.0 0.0 0.00 0.00 0.00 91 1009.3
20260906080505 23 11 0.0 0.0 0.00 0.00 0.00 91 1009.9
20260906075505 23 11 0.0 0.0 0.00 0.00 0.00 91 1009.9
20260906075005 23 11 0.0 0.0 0.00 0.00 0.00 91 1009.9
20260906074505 23 11 0.0 0.0 0.00 0.00 0.00 90 1009.9
20260906074005 23 11 0.0 0.0 0.00 0.00 0.00 90 1009.9
20260906073006 23 11 0.0 0.0 0.00 0.00 0.00 90 1009.9
20260906072505 23 11 0.0 0.0 0.00 0.00 0.00 90 1009.9
20260906071505 23 11 0.0 0.0 0.00 0.00 0.00 89 1009.9
20260906071005 23 11 0.0 0.0 0.00 0.00 0.00 89 1009.9
20260906070505 23 11 0.0 0.0 0.00 0.00 0.00 89 1010.2
20260906070005 23 11 0.0 0.0 0.00 0.00 0.00 88 1010.2
20260906065505 23 11 0.0 0.0 0.00 0.00 0.00 89 1010.2
20260906065005 23 11 0.0 0.0 0.00 0.00 0.00 89 1010.2
20260906064505 23 11 0.0 0.0 0.00 0.00 0.00 89 1010.2
20260906064006 23 11 0.0 0.0 0.00 0.00 0.00 88 1010.2
20260906063505 23 11 0.0 0.0 0.00 0.00 0.00 88 1010.2
20260906063006 23 11 0.0 0.0 0.00 0.00 0.00 87 1010.2
20260906062006 24 11 0.0 0.0 0.00 0.00 0.00 87 1010.2
20260906061505 24 11 0.0 0.0 0.00 0.00 0.00 87 1010.2
20260906061005 24 11 0.0 0.0 0.00 0.00 0.00 86 1010.2
20260906060005 24 11 0.0 0.0 0.00 0.00 0.00 86 1010.2
20260906055505 24 11 0.0 0.0 0.00 0.00 0.00 86 1010.2
20260906055005 24 11 0.0 0.0 0.00 0.00 0.00 85 1010.0
20260906054505 24 11 0.0 0.0 0.00 0.00 0.00 85 1010.0
20260906054006 24 11 0.0 0.0 0.00 0.00 0.00 85 1010.0
20260906053506 25 11 0.0 0.0 0.00 0.00 0.00 85 1010.0
20260906053006 25 11 0.0 0.0 0.00 0.00 0.00 85 1010.7
20260906052505 25 11 0.0 0.0 0.00 0.00 0.00 85 1010.7
20260906052006 25 11 0.0 0.0 0.00 0.00 0.00 85 1010.7
20260906051505 25 11 0.0 0.0 0.00 0.00 0.00 84 1010.7
20260906051006 25 11 0.0 0.0 0.00 0.00 0.00 84 1010.7
20260906050506 25 11 0.0 0.0 0.00 0.00 0.00 84 1010.7
20260906050005 25 11 0.0 0.0 0.00 0.00 0.00 84 1010.7
20260906045506 25 11 0.0 0.0 0.00 0.00 0.00 84 1010.7
20260906045006 25 11 0.0 0.0 0.00 0.00 0.00 83 1010.7
20260906044506 25 11 0.0 0.0 0.00 0.00 0.00 83 1010.7
20260906044005 25 11 0.0 0.0 0.00 0.00 0.00 83 1010.8
20260906043505 25 11 0.0 0.0 0.00 0.00 0.00 82 1010.8
20260906043005 25 11 0.0 1.6 0.00 0.00 0.00 83 1010.8
20260906042505 26 11 1.6 4.8 0.00 0.00 0.00 82 1010.8
20260906042006 26 38 0.0 0.0 0.00 0.00 0.00 82 1010.7
20260906041505 26 38 0.0 0.0 0.00 0.00 0.00 82 1010.7
20260906041006 26 38 0.0 0.0 0.00 0.00 0.00 82 1010.7
20260906040005 26 38 3.2 4.8 0.00 0.00 0.00 81 1010.7
20260906035505 26 12 1.6 4.8 0.00 0.00 0.00 80 1010.7
20260906035006 26 46 3.2 4.8 0.00 0.00 0.00 80 1010.7
20260906034505 26 44 0.0 3.2 0.00 0.00 0.00 80 1010.7
20260906033506 27 44 1.6 4.8 0.00 0.00 0.00 79 1010.7
20260906033005 27 45 1.6 4.8 0.00 0.00 0.00 80 1010.7
20260906032505 27 327 3.2 8.0 0.00 0.00 0.00 80 1010.8
20260906032006 27 325 3.2 8.0 0.00 0.00 0.00 82 1010.8
20260906031505 27 321 3.2 4.8 0.00 0.00 0.00 84 1010.8
20260906031006 28 210 1.6 4.8 0.00 0.00 0.00 86 1010.0
20260906030505 28 207 1.6 3.2 0.00 0.00 0.00 87 1010.0
20260906030006 28 207 0.0 0.0 0.00 0.00 0.00 87 1010.0
20260906025505 28 207 1.6 1.6 0.00 0.00 0.00 87 1010.0
20260906025005 28 207 0.0 3.2 0.00 0.00 0.00 86 1010.0
20260906024505 28 207 1.6 3.2 0.00 0.00 0.00 86 1010.0
20260906024006 28 207 0.0 1.6 0.00 0.00 0.00 86 1010.0
20260906023005 28 207 3.2 4.8 0.00 0.00 0.00 86 1010.0
20260906022005 28 165 1.6 8.0 0.00 0.00 0.00 86 1010.1
20260906021505 28 211 3.2 9.7 0.00 0.00 0.00 86 1010.1
20260906021006 28 205 4.8 9.7 0.00 0.00 0.00 86 1010.0
20260906020006 28 178 1.6 9.7 0.00 0.00 0.00 86 1008.3
20260906015505 28 209 4.8 12.9 0.00 0.00 0.00 85 1008.3
20260906015005 28 196 3.2 8.0 0.00 0.00 0.00 84 1008.3
20260906014006 28 336 1.6 4.8 0.00 0.00 0.00 79 1008.3
20260906013506 28 336 1.6 4.8 0.00 0.00 0.00 78 1008.3
20260906013005 28 318 0.0 3.2 0.00 0.00 0.00 78 1008.3
20260906012006 29 318 0.0 0.0 0.00 0.00 0.00 75 1009.0
20260906011505 29 318 0.0 0.0 0.00 0.00 0.00 75 1009.0
20260906011005 29 318 0.0 3.2 0.00 0.00 0.00 74 1009.5
20260906010505 29 318 0.0 4.8 0.00 0.00 0.00 74 1010.0
20260906010005 29 334 0.0 3.2 0.00 0.00 0.00 76 1010.0
20260906005505 29 334 3.2 4.8 0.00 0.00 0.00 78 1010.0
20260906005005 30 197 0.0 3.2 0.00 0.00 0.00 83 1010.0
20260906004505 30 196 1.6 4.8 0.00 0.00 0.00 83 1010.0
20260906004005 30 208 1.6 4.8 0.00 0.00 0.00 83 1010.0
20260906003506 30 229 3.2 8.0 0.00 0.00 0.00 82 1010.0
20260906003005 30 254 0.0 4.8 0.00 0.00 0.00 82 1010.0
20260906002506 30 274 3.2 4.8 0.00 0.00 0.00 82 1010.0
20260906002005 30 291 1.6 11.3 0.00 0.00 0.00 81 1010.0
20260906001505 30 207 3.2 8.0 0.00 0.00 0.00 81 1010.0
20260906000505 30 176 8.0 12.9 0.00 0.00 0.00 80 1010.3
20260906000005 30 189 3.2 8.0 0.00 0.00 0.00 80 1010.3
20260905235505 31 198 4.8 11.3 0.00 0.00 0.00 79 1010.3
20260905235006 31 205 0.0 11.3 0.00 0.00 0.00 79 1009.7
20260905234505 31 181 1.6 4.8 0.00 0.00 0.00 79 1009.7
20260905234006 31 207 4.8 8.0 0.00 0.00 0.00 79 1009.7
20260905233505 31 214 3.2 12.9 0.00 0.00 0.00 78 1009.7
20260905233005 31 204 3.2 4.8 0.00 0.00 0.00 78 1009.7
20260905232505 31 228 1.6 4.8 0.00 0.00 0.00 78 1009.7
20260905232006 31 201 3.2 8.0 0.00 0.00 0.00 78 1009.7
20260905231505 31 204 4.8 9.7 0.00 0.00 0.00 77 1009.7
20260905231006 31 185 4.8 9.7 0.00 0.00 0.00 77 1009.7
20260905230506 31 208 3.2 8.0 0.00 0.00 0.00 77 1009.7
20260905230006 32 215 4.8 9.7 0.00 0.00 0.00 76 1009.7
20260905225504 32 211 3.2 9.7 0.00 0.00 0.00 76 1009.7
20260905225006 32 184 1.6 4.8 0.00 0.00 0.00 76 1009.3
20260905224504 32 182 1.6 4.8 0.00 0.00 0.00 76 1009.3
20260905224005 32 223 3.2 8.0 0.00 0.00 0.00 76 1009.3
20260905223005 32 155 3.2 8.0 0.00 0.00 0.00 75 1009.3
20260905222505 32 164 3.2 9.7 0.00 0.00 0.00 74 1009.3
20260905222005 33 192 4.8 8.0 0.00 0.00 0.00 73 1009.3
20260905221504 33 188 1.6 3.2 0.00 0.00 0.00 73 1009.3
20260905221005 33 186 1.6 4.8 0.00 0.00 0.00 72 1009.3
20260905220005 33 187 3.2 14.5 0.00 0.00 0.00 71 1009.3
20260905215505 34 116 3.2 9.7 0.00 0.00 0.00 70 1009.1
20260905215006 34 165 3.2 8.0 0.00 0.00 0.00 66 1009.1
20260905214505 34 219 0.0 1.6 0.00 0.00 0.00 62 1009.1
20260905214006 34 219 0.0 3.2 0.00 0.00 0.00 60 1009.1
20260905213505 34 219 0.0 4.8 0.00 0.00 0.00 61 1009.1
20260905213006 35 215 1.6 4.8 0.00 0.00 0.00 59 1008.9
20260905212505 35 214 1.6 4.8 0.00 0.00 0.00 59 1008.9
20260905212005 35 214 4.8 4.8 0.00 0.00 0.00 58 1008.9
20260905211005 35 225 1.6 3.2 0.00 0.00 0.00 58 1008.9
20260905210505 35 202 1.6 4.8 0.00 0.00 0.00 57 1008.9
20260905210005 36 200 0.0 3.2 0.00 0.00 0.00 57 1008.9
20260905205005 36 188 1.6 3.2 0.00 0.00 0.00 56 1008.9
20260905204505 36 188 1.6 8.0 0.00 0.00 0.00 57 1008.9
20260905204005 36 340 1.6 4.8 0.00 0.00 0.00 56 1009.5
20260905203505 36 344 0.0 3.2 0.00 0.00 0.00 60 1009.5
20260905203005 36 343 1.6 3.2 0.00 0.00 0.00 58 1009.5
20260905202505 36 343 3.2 4.8 0.00 0.00 0.00 56 1009.5
20260905202005 36 342 1.6 4.8 0.00 0.00 0.00 56 1009.5
20260905201505 36 338 1.6 4.8 0.00 0.00 0.00 56 1009.5
20260905200505 36 190 1.6 4.8 0.00 0.00 0.00 56 1009.5
20260905200005 36 192 3.2 4.8 0.00 0.00 0.00 57 1009.5
20260905195505 36 218 3.2 4.8 0.00 0.00 0.00 56 1009.5
20260905195005 36 224 3.2 4.8 0.00 0.00 0.00 58 1009.5
20260905194506 36 342 1.6 4.8 0.00 0.00 0.00 61 1009.5
20260905194005 36 236 3.2 4.8 0.00 0.00 0.00 60 1009.5
20260905193505 36 238 3.2 8.0 0.00 0.00 0.00 60 1009.5
20260905193006 36 126 3.2 4.8 0.00 0.00 0.00 58 1009.5
20260905192006 36 317 3.2 4.8 0.00 0.00 0.00 60 1009.8
20260905191505 36 196 0.0 4.8 0.00 0.00 0.00 64 1009.8
20260905191005 35 196 3.2 8.0 0.00 0.00 0.00 60 1011.1
20260905190506 35 275 1.6 4.8 0.00 0.00 0.00 64 1011.1
20260905190004 35 332 3.2 4.8 0.00 0.00 0.00 62 1011.1
20260905185505 35 198 1.6 9.7 0.00 0.00 0.00 64 1011.1
20260905185006 35 228 3.2 4.8 0.00 0.00 0.00 63 1011.1
20260905183505 35 347 4.8 8.0 0.00 0.00 0.00 62 1011.1
20260905182505 35 224 1.6 4.8 0.00 0.00 0.00 65 1011.1
20260905182005 35 301 1.6 4.8 0.00 0.00 0.00 66 1011.1
20260905181505 34 340 3.2 9.7 0.00 0.00 0.00 66 1011.1
20260905181006 34 325 4.8 9.7 0.00 0.00 0.00 65 1011.1
20260905180505 34 154 3.2 4.8 0.00 0.00 0.00 66 1011.1
20260905180005 34 320 3.2 8.0 0.00 0.00 0.00 66 1011.1
20260905175505 34 270 1.6 8.0 0.00 0.00 0.00 66 1011.1
20260905175005 33 170 3.2 8.0 0.00 0.00 0.00 67 1011.1
20260905174505 33 175 3.2 14.5 0.00 0.00 0.00 66 1011.7
20260905174005 33 243 1.6 4.8 0.00 0.00 0.00 69 1011.7
20260905173506 33 336 0.0 4.8 0.00 0.00 0.00 66 1011.7
20260905173006 33 229 1.6 4.8 0.00 0.00 0.00 68 1011.7
20260905172505 33 333 1.6 4.8 0.00 0.00 0.00 69 1011.7
20260905171505 33 209 3.2 8.0 0.00 0.00 0.00 68 1011.7
20260905171005 33 347 3.2 9.7 0.00 0.00 0.00 67 1011.6
20260905170506 33 339 1.6 4.8 0.00 0.00 0.00 69 1011.6
20260905170005 33 173 1.6 9.7 0.00 0.00 0.00 70 1012.9
20260905165505 33 202 3.2 8.0 0.00 0.00 0.00 69 1012.9
20260905165005 33 178 1.6 8.0 0.00 0.00 0.00 68 1012.9
20260905164505 33 206 3.2 4.8 0.00 0.00 0.00 71 1012.9
20260905164006 32 240 3.2 8.0 0.00 0.00 0.00 72 1012.9
20260905163506 32 319 3.2 9.7 0.00 0.00 0.00 71 1012.9
20260905163005 32 228 1.6 4.8 0.00 0.00 0.00 74 1012.9
20260905162505 32 329 3.2 8.0 0.00 0.00 0.00 73 1012.9
20260905162005 32 321 3.2 8.0 0.00 0.00 0.00 74 1012.9
20260905161505 31 327 1.6 9.7 0.00 0.00 0.00 75 1012.9
20260905160506 31 187 1.6 4.8 0.00 0.00 0.00 78 1012.9
20260905160005 30 237 1.6 4.8 0.00 0.00 0.00 78 1012.9
20260905155505 30 338 3.2 8.0 0.00 0.00 0.00 77 1012.9
20260905155005 30 326 3.2 8.0 0.00 0.00 0.00 78 1013.2
20260905154505 30 213 3.2 4.8 0.00 0.00 0.00 81 1013.2
20260905154006 30 201 3.2 4.8 0.00 0.00 0.00 81 1013.2
20260905153505 29 227 3.2 4.8 0.00 0.00 0.00 82 1013.2
20260905153005 29 318 3.2 8.0 0.00 0.00 0.00 82 1013.2
20260905152505 29 335 1.6 4.8 0.00 0.00 0.00 83 1013.2
20260905152005 29 330 3.2 8.0 0.00 0.00 0.00 83 1013.2
20260905151505 28 327 1.6 9.7 0.00 0.00 0.00 84 1013.2
20260905145505 28 326 4.8 8.0 0.00 0.00 0.00 85 1013.2
20260905144505 28 199 3.2 4.8 0.00 0.00 0.00 86 1013.3
20260905144006 28 186 1.6 9.7 0.00 0.00 0.00 87 1013.3
20260905143505 28 194 3.2 9.7 0.00 0.00 0.00 87 1013.3
20260905143005 27 329 3.2 9.7 0.00 0.00 0.00 88 1013.3
20260905142505 27 227 3.2 8.0 0.00 0.00 0.00 89 1013.3
20260905142005 27 310 3.2 8.0 0.00 0.00 0.00 90 1013.3
20260905141005 27 281 1.6 8.0 0.00 0.00 0.00 92 1013.3
20260905140505 27 202 6.4 11.3 0.00 0.00 0.00 93 1013.3
20260905140005 27 208 3.2 9.7 0.00 0.00 0.00 93 1013.3
20260905135005 26 330 3.2 4.8 0.00 0.00 0.00 95 1013.3
20260905134505 26 343 3.2 4.8 0.00 0.00 0.00 95 1013.3
20260905134005 26 335 3.2 4.8 0.00 0.00 0.00 95 1013.3
20260905133505 26 337 3.2 4.8 0.00 0.00 0.00 95 1013.3
20260905132505 26 254 3.2 4.8 0.00 0.00 0.00 95 1013.3
20260905132005 26 343 3.2 4.8 0.00 0.00 0.00 95 1013.3
20260905131005 26 312 1.6 4.8 0.00 0.00 0.00 97 1013.3
20260905130505 26 207 3.2 4.8 0.00 0.00 0.00 100 1013.3
20260905130005 26 320 1.6 4.8 0.00 0.00 0.00 100 1013.3
20260905125505 26 234 0.0 4.8 0.00 0.00 0.00 95 1013.3
20260905125005 25 213 1.6 9.7 0.00 0.00 0.00 96 1013.3
20260905124505 25 254 1.6 3.2 0.00 0.00 0.00 95 1013.3
20260905124006 25 252 1.6 3.2 0.00 0.00 0.00 95 1013.3
20260905123505 25 304 1.6 4.8 0.00 0.00 0.00 95 1013.4
20260905123005 25 317 1.6 8.0 0.00 0.00 0.00 95 1013.4
20260905122005 25 302 3.2 4.8 0.00 0.00 0.00 95 1013.4
20260905121505 25 201 0.0 0.0 0.00 0.00 0.00 95 1013.4
20260905121006 25 201 0.0 0.0 0.00 0.00 0.00 95 1013.3
20260905120007 24 201 0.0 0.0 0.00 0.00 0.00 94 1013.3
20260905115508 24 201 0.0 0.0 0.00 0.00 0.00 94 1013.1
20260905114505 24 201 0.0 0.0 0.00 0.00 0.00 94 1013.1
20260905114006 24 201 0.0 0.0 0.00 0.00 0.00 94 1013.1
20260905113506 24 201 0.0 0.0 0.00 0.00 0.00 94 1013.1